Vorticity
8 6 6 3 5 9 4 5 4 5 8 5 7 12 12 8 9 10 10 10 10 10 8 6 7 7 4 5 5 3 5 5 2 5 10 5 3 5 7 8 5 3 3 5 4 2 4 6 6 4 5 6 5 7 5 4 6 -0 5 10 6 7 7 6 6 6 5 4 4 4 5 4 4 4 4 4 4 4 4 5 5 5 6 8 10 11 8 7 6 6 6 4 3 4 5 6 7
9 7 6 3 1 6 6 2 -2 5 10 7 8 9 8 4 5 7 7 8 8 6 5 6 4 4 8 7 3 4 5 5 5 5 8 7 6 5 5 7 3 3 7 5 4 7 5 3 3 4 4 1 2 7 5 2 3 4 11 9 7 7 5 6 5 5 4 4 4 4 4 4 4 4 4 4 4 5 5 5 5 5 4 5 8 11 11 9 7 6 7 5 3 3 5 6 7
7 6 6 5 -1 2 6 5 -2 1 8 8 7 5 2 1 4 7 5 6 5 4 5 4 4 8 10 4 2 4 3 3 5 4 5 7 7 8 8 6 1 3 6 4 6 6 1 1 5 5 2 2 4 5 5 4 5 8 9 7 8 6 5 6 4 5 4 4 4 4 4 4 4 4 4 5 5 5 5 5 5 5 4 4 5 7 10 11 10 7 6 6 4 3 4 5 6
6 3 7 7 1 4 -1 -2 2 3 7 7 6 6 3 -0 3 6 4 3 4 5 5 4 4 5 2 1 5 6 4 6 4 2 3 5 5 7 8 6 3 3 4 5 5 1 0 6 8 5 3 6 6 6 7 7 6 7 6 6 7 5 6 5 4 5 4 5 5 4 5 4 4 5 5 5 5 5 4 4 4 5 5 5 4 5 7 9 11 11 8 8 6 4 3 4 6
5 2 6 8 5 8 -1 -4 4 3 6 7 7 8 4 1 2 3 5 5 4 5 6 5 3 2 1 4 7 7 8 6 3 3 3 3 5 4 4 5 5 4 6 6 3 3 5 7 8 5 4 6 6 7 8 5 5 6 5 6 6 6 6 6 6 5 5 6 5 5 5 5 5 5 6 5 5 5 4 5 5 6 7 5 5 5 4 6 8 11 11 9 8 5 3 3 4
5 4 2 3 8 12 6 5 9 5 5 8 7 6 4 3 3 4 4 5 3 3 4 3 5 7 5 5 4 5 7 4 6 8 4 3 5 5 5 6 6 5 5 5 4 4 6 7 7 4 3 6 5 5 6 5 5 6 8 6 5 6 6 7 6 5 6 5 5 6 5 5 6 6 6 6 6 6 6 7 7 7 8 8 7 6 5 4 4 7 10 10 9 7 4 3 3
7 7 2 -2 -1 3 4 5 8 8 7 7 7 5 6 6 5 5 3 4 3 2 2 2 6 10 8 6 4 4 4 4 9 8 4 6 4 6 7 5 5 5 4 5 5 5 5 6 6 4 4 5 6 6 5 6 6 8 10 6 5 7 6 6 6 6 6 6 7 6 6 6 6 7 6 6 7 7 7 6 6 6 6 6 7 9 9 8 5 4 6 9 11 10 7 4 3
7 7 3 1 -1 1 7 6 3 7 6 6 8 7 8 10 8 5 4 4 5 5 3 2 4 6 8 6 5 6 3 4 8 5 7 7 4 8 8 4 6 4 4 7 5 5 5 5 5 5 5 5 6 6 5 6 6 8 9 6 5 6 6 6 6 6 6 7 7 7 7 7 7 7 6 6 6 6 6 5 5 4 3 3 3 5 6 8 9 7 5 5 8 11 10 7 4
6 8 5 5 7 7 10 10 3 5 6 5 6 6 9 10 9 7 6 5 7 8 4 2 2 4 9 8 6 5 3 5 8 6 8 7 3 7 5 2 6 4 4 6 5 6 6 6 7 6 6 6 5 5 6 7 8 7 7 7 6 6 7 7 8 8 9 10 9 9 8 8 8 7 7 6 6 5 5 4 4 4 3 4 3 3 3 4 6 8 9 7 5 7 9 10 8
3 9 8 2 5 6 6 9 7 6 6 6 6 4 6 8 9 7 5 4 6 7 5 5 2 3 8 10 8 4 5 7 6 6 7 6 4 5 4 3 5 6 7 6 5 6 5 6 7 5 5 5 5 7 7 7 8 7 7 8 7 8 8 8 10 9 9 10 10 10 9 8 7 6 6 5 4 4 4 4 4 5 5 5 5 6 5 4 4 5 7 8 8 7 7 7 9
5 10 7 -1 4 5 3 8 6 5 5 5 7 5 4 6 8 7 5 4 4 5 7 8 5 4 5 7 7 4 5 5 3 5 7 7 7 5 4 3 4 7 8 5 5 5 5 6 6 5 5 6 7 7 7 8 9 8 8 9 9 9 9 9 8 7 8 9 10 10 9 7 6 6 5 4 5 4 6 6 6 7 7 7 6 8 9 8 7 6 5 5 7 8 9 7 6
7 8 6 3 6 5 4 7 5 6 7 6 6 7 7 7 7 7 8 8 4 5 7 6 4 5 5 5 5 4 6 3 3 4 5 7 7 5 3 4 5 6 7 5 5 5 5 7 7 6 6 7 8 8 9 9 9 9 9 9 10 9 7 7 7 7 8 8 9 9 8 7 6 6 5 6 6 7 8 7 8 7 7 7 8 8 11 12 8 8 8 7 6 6 8 8 8
5 2 4 7 5 5 5 4 5 8 8 7 6 6 10 9 8 8 8 8 7 7 8 6 6 7 5 6 7 6 6 4 4 3 4 6 5 4 4 6 6 5 7 6 5 6 8 8 7 8 8 8 10 10 10 10 10 10 10 9 8 7 6 6 7 8 8 8 8 7 6 6 6 6 6 6 6 7 7 7 8 8 9 10 12 12 12 13 10 9 8 9 9 7 7 7 7
6 4 5 9 4 5 8 5 5 9 6 5 7 6 8 10 10 11 9 8 7 6 6 7 8 7 5 7 9 8 7 6 6 5 3 5 5 5 6 8 8 6 7 8 6 7 9 8 8 9 9 10 11 11 10 10 10 9 9 8 7 6 6 7 7 7 8 7 6 6 6 5 6 6 6 6 6 6 7 8 7 8 11 11 13 15 15 12 9 10 9 10 11 9 9 7 6
6 6 3 3 3 4 5 7 4 4 7 6 7 6 6 8 11 13 14 10 7 8 8 7 5 4 5 10 11 8 8 8 7 6 5 5 6 7 8 10 9 7 7 8 7 8 9 8 8 10 10 10 10 10 10 10 10 9 8 7 6 6 6 6 6 6 7 7 7 7 7 6 7 8 8 7 7 9 10 10 8 9 11 12 12 13 13 11 9 10 10 11 11 10 10 9 8
3 4 3 1 7 9 1 7 8 3 7 8 8 7 4 7 10 12 14 12 12 14 10 7 4 3 5 9 12 11 9 9 7 6 5 6 8 8 8 9 9 7 8 7 7 9 8 8 10 10 10 10 10 10 9 9 8 7 6 5 5 5 5 5 5 6 7 8 9 8 8 8 8 9 9 8 7 9 11 11 11 11 12 12 12 12 12 11 11 10 9 11 12 11 11 10 10
2 2 5 8 9 7 2 6 7 5 7 8 9 8 5 6 7 10 12 13 15 11 6 6 5 7 7 6 11 12 10 9 7 6 7 7 8 8 8 8 9 8 7 6 8 9 6 8 11 10 10 11 10 9 7 6 5 5 4 4 4 5 5 5 5 6 7 7 8 8 8 7 7 8 7 7 6 7 9 9 9 10 11 11 10 11 11 12 12 12 12 12 12 13 13 12 12
7 2 -2 9 9 3 10 9 4 8 10 7 8 9 7 6 6 9 10 10 11 7 7 10 6 7 8 6 9 11 10 10 6 6 7 8 9 8 8 8 9 9 8 8 8 7 8 10 11 10 11 10 8 6 5 4 4 4 4 5 5 5 5 6 7 6 6 6 7 6 6 6 6 7 7 6 5 6 7 7 8 8 9 10 10 10 9 10 9 10 11 12 11 12 13 12 12
5 2 -7 1 6 4 10 8 6 9 10 8 7 9 7 7 6 7 9 9 9 9 10 11 7 8 8 7 8 10 12 10 7 6 7 8 9 8 9 9 10 10 10 9 7 6 9 10 10 10 8 7 5 4 4 4 5 5 5 5 5 5 5 5 6 6 6 6 6 6 6 7 7 6 6 5 5 6 6 6 6 6 7 8 8 9 9 8 7 8 8 9 10 10 12 13 13
3 5 1 6 8 6 7 5 7 6 7 10 6 7 7 7 6 5 9 8 7 9 10 8 9 10 8 6 6 9 12 10 6 5 6 7 8 9 10 10 10 10 10 10 9 8 10 10 7 6 5 4 3 4 5 5 5 5 5 5 5 5 4 5 6 6 6 6 6 6 6 7 7 6 6 5 5 5 6 7 6 6 5 5 6 6 7 8 9 8 7 8 9 9 10 10 12
5 -0 -8 8 12 6 10 8 7 6 7 10 6 7 7 6 7 7 8 8 6 6 7 6 9 11 7 6 7 8 9 9 7 4 5 7 8 10 10 11 10 9 8 9 10 10 9 8 5 4 4 4 4 5 6 6 5 4 4 4 4 4 4 5 7 6 6 6 6 6 6 7 7 6 6 6 5 5 5 6 7 8 6 4 5 6 6 6 6 6 7 7 5 7 8 7 8
7 2 -9 8 8 -2 9 11 7 8 7 7 8 7 6 7 9 10 9 8 8 7 7 6 8 11 10 8 6 8 9 9 7 5 6 7 9 9 9 10 10 9 7 7 8 8 7 5 4 4 5 5 6 6 5 5 4 3 3 4 4 5 6 6 7 7 6 6 6 6 6 7 7 7 6 5 5 5 5 5 5 6 6 6 6 7 7 3 3 4 3 4 4 5 5 4 4
1 1 3 9 4 -3 5 11 9 9 7 7 9 6 6 8 7 10 9 6 9 9 11 10 7 8 11 12 8 6 8 9 8 6 7 7 10 11 10 9 9 9 7 7 8 5 5 4 4 5 6 6 6 5 4 4 3 4 4 5 6 6 6 7 7 7 6 6 6 6 6 6 7 7 7 6 6 6 5 5 5 5 5 6 5 4 4 3 4 5 2 3 5 5 4 3 4
-0 0 7 7 5 3 0 6 10 8 7 7 8 6 7 7 4 9 8 6 10 10 10 11 10 8 6 10 12 8 6 8 7 5 8 8 10 13 11 9 9 8 7 6 6 4 4 5 5 6 6 6 5 4 4 4 5 5 6 6 6 6 6 6 6 6 6 6 6 5 5 5 6 6 8 8 6 6 5 5 5 5 4 4 5 3 3 3 4 6 5 4 5 6 6 5 5
3 2 5 6 7 8 3 6 10 8 6 7 8 7 8 7 5 9 9 8 11 10 11 12 12 12 5 5 8 7 7 8 5 3 8 8 9 12 10 8 8 7 7 6 4 4 5 5 6 6 5 4 3 4 4 5 6 6 6 6 5 5 5 6 5 6 6 6 6 6 5 5 5 4 5 6 6 6 6 7 6 5 4 4 6 4 3 4 3 5 6 5 4 5 5 5 5
5 10 2 2 7 8 8 5 8 9 6 8 10 8 9 8 7 10 8 9 12 10 11 10 11 12 9 8 5 5 9 7 3 3 7 9 9 8 8 7 7 6 5 5 4 4 6 6 5 4 3 3 3 5 5 6 5 5 5 5 5 4 5 5 5 6 6 7 6 5 5 4 4 4 4 4 5 7 6 6 7 6 5 5 6 5 3 3 3 4 5 5 4 4 4 4 4
5 27 7 -0 4 5 7 5 6 7 6 9 8 7 8 8 9 9 7 9 12 11 10 9 12 12 10 10 5 6 11 8 5 6 5 6 8 7 7 6 5 6 5 5 5 4 5 4 4 4 3 4 4 5 6 6 5 5 5 5 5 4 4 4 5 6 6 6 6 6 6 5 5 5 5 4 5 6 6 5 6 6 5 4 5 4 4 4 3 3 3 4 4 3 4 4 3
-4 21 6 3 6 4 6 6 6 3 4 8 6 5 6 6 9 7 7 10 8 9 11 9 12 12 12 11 6 7 11 8 7 8 6 5 7 7 6 7 5 5 5 5 5 4 5 4 3 4 4 4 5 6 7 6 5 5 5 5 4 4 4 4 5 5 5 5 6 7 6 5 6 5 5 5 5 4 5 6 5 5 5 4 5 4 4 4 4 4 3 3 4 4 5 5 4
-0 9 2 6 7 6 8 4 5 3 4 7 6 6 4 5 8 7 7 10 8 8 9 8 10 10 12 12 6 8 11 9 8 8 8 7 8 8 6 7 7 6 6 6 5 4 4 4 4 4 4 4 4 6 7 5 5 5 5 5 5 5 4 4 5 5 5 5 5 6 7 6 5 5 6 6 6 5 5 6 5 5 5 4 5 6 6 6 5 5 5 4 5 4 5 5 5
2 5 1 3 2 5 9 6 4 5 4 5 6 6 4 3 4 7 5 7 8 9 10 9 9 9 12 12 5 8 10 8 9 7 7 7 7 7 7 8 7 6 6 5 5 4 4 4 4 4 3 4 5 5 6 5 4 4 4 4 4 5 4 4 5 5 6 5 6 5 6 7 6 5 6 6 6 5 5 6 5 6 6 4 5 7 6 6 6 6 5 5 5 5 5 5 5
0 4 1 -0 2 4 10 12 5 4 5 4 6 3 5 5 2 6 4 3 5 6 9 10 10 9 10 12 7 8 9 6 8 6 4 5 6 6 6 6 6 5 5 5 4 4 4 4 4 4 4 4 5 6 5 4 3 2 2 3 4 5 6 6 5 6 7 6 7 6 6 6 7 7 6 6 6 5 6 6 6 6 7 4 4 5 5 5 5 5 5 5 6 6 5 5 5
-0 1 -0 -0 4 4 8 12 5 4 6 4 7 2 4 11 4 4 4 2 3 3 4 6 9 9 9 10 7 8 9 7 8 7 6 4 4 6 6 5 5 5 4 4 4 3 4 4 5 5 5 5 6 6 5 3 3 2 2 3 5 7 7 8 8 8 8 8 7 7 7 7 6 7 7 7 7 7 7 6 6 6 6 5 5 5 6 6 6 6 6 6 6 5 6 6 6
-1 0 0 -1 5 5 3 12 9 4 5 5 10 2 -2 10 10 5 4 2 1 3 4 5 7 7 8 8 7 8 7 8 9 8 8 6 4 5 6 6 5 5 4 4 4 4 4 4 5 5 5 6 5 5 4 3 3 2 3 5 7 9 9 10 9 10 8 8 8 7 8 9 7 6 6 6 6 6 6 6 8 8 5 6 6 6 6 7 7 7 8 8 7 6 6 6 6
1 0 1 -1 4 6 -2 10 14 5 5 5 8 6 -1 7 13 6 5 4 2 3 3 4 7 7 8 7 7 8 7 8 9 7 7 6 6 6 6 6 6 5 4 5 5 4 4 4 5 5 6 6 5 4 3 3 3 2 4 7 9 9 9 10 9 8 8 7 6 6 7 7 6 5 5 5 4 5 5 5 6 6 4 5 5 4 4 4 5 6 7 8 8 9 8 7 7
5 2 6 1 2 6 -3 4 15 9 6 6 6 7 0 1 11 8 4 5 4 6 5 3 6 7 8 8 6 7 6 7 8 7 7 6 5 5 5 5 5 6 5 5 6 5 5 5 4 5 6 6 4 4 3 2 3 4 5 8 10 9 8 8 7 6 6 6 5 5 5 5 5 5 5 4 4 4 4 3 3 4 3 2 3 2 2 3 3 4 5 7 8 8 9 9 8
3 5 9 5 3 6 3 2 14 13 3 5 9 8 2 -2 6 11 5 5 5 6 5 3 5 6 7 8 8 8 6 6 6 7 6 6 6 5 5 5 5 6 6 6 6 6 5 5 5 5 5 6 4 3 3 2 4 5 8 10 9 8 7 6 6 6 5 5 5 5 5 5 4 5 5 4 5 4 3 3 3 3 3 2 2 2 2 2 2 3 4 5 7 7 8 8 8
1 4 5 11 10 2 5 7 12 16 6 5 8 5 5 1 3 10 7 6 7 6 5 4 4 5 6 6 7 9 10 8 6 6 6 5 5 5 4 5 5 6 6 6 6 6 7 6 6 5 5 5 4 4 3 2 5 8 9 10 8 6 6 5 5 5 5 4 5 4 4 4 3 3 4 4 4 5 5 4 4 3 3 3 3 2 2 2 3 3 3 5 6 7 7 7 8
1 2 0 10 15 6 8 7 2 10 9 7 10 4 3 4 3 6 7 7 8 7 6 6 5 5 5 5 4 6 9 11 9 7 8 6 5 5 5 4 5 6 5 6 6 6 7 7 7 7 6 6 5 4 3 3 7 9 9 8 7 6 4 4 4 3 3 4 3 3 2 2 2 1 1 2 2 3 4 6 7 6 5 4 4 4 3 3 4 3 3 4 5 7 7 7 7
-0 -2 2 6 10 8 7 4 5 18 15 4 7 5 3 6 4 3 5 6 7 7 6 5 6 5 4 5 4 4 4 6 8 9 9 9 8 6 6 6 5 5 5 5 5 5 6 6 7 7 7 7 6 5 4 6 8 9 9 7 5 5 4 3 3 3 3 2 3 2 1 -0 -0 0 1 2 2 2 4 6 8 9 8 7 6 6 5 5 5 4 4 4 5 7 7 7 6
2 -9 3 8 6 8 8 5 4 16 21 8 4 8 6 5 4 3 3 3 4 5 5 5 5 4 4 5 4 4 4 3 4 5 6 9 10 9 8 7 6 6 6 5 5 5 6 6 7 8 8 7 7 6 6 7 9 8 7 6 5 4 4 3 2 2 2 2 2 1 1 1 -0 1 1 1 3 4 6 7 8 10 11 10 9 8 7 7 7 7 5 5 5 6 7 6 6
8 -4 3 7 5 9 9 4 -5 -1 10 7 2 6 7 4 3 5 3 1 4 4 3 4 5 5 4 5 5 4 4 4 4 4 3 4 6 8 8 8 9 9 7 7 7 7 7 8 8 8 8 9 8 7 8 8 8 8 6 4 4 4 3 3 2 2 2 2 2 1 1 2 2 2 3 4 6 7 9 9 8 10 11 12 11 10 10 9 8 8 6 6 7 7 7 6 6
8 6 2 -2 3 9 6 3 4 10 12 8 3 1 6 8 4 6 6 3 3 3 4 4 4 5 4 3 5 5 4 3 4 4 3 5 4 3 5 6 7 8 8 8 8 9 8 7 7 8 7 8 8 7 7 7 7 6 5 4 3 3 3 2 2 2 2 2 3 4 4 5 6 7 8 8 9 10 11 10 9 10 11 11 10 10 9 9 8 8 7 7 7 8 8 7 6
6 8 0 -3 1 3 4 -0 -1 8 13 14 10 0 1 8 8 8 6 5 7 6 3 4 4 5 6 3 2 3 3 2 2 4 4 5 5 4 4 5 5 6 7 7 8 8 9 8 7 7 6 6 6 6 6 5 6 4 4 4 3 3 2 2 3 3 3 4 5 6 8 10 11 11 12 11 11 13 12 9 8 8 9 9 9 9 8 8 8 8 8 7 8 9 9 7 7
8 8 -0 3 3 -4 4 6 0 6 11 14 15 7 0 -2 6 13 7 3 7 6 4 5 5 5 5 4 3 3 3 3 2 3 4 5 6 5 5 6 6 7 6 7 7 7 7 8 8 6 7 6 4 5 5 3 3 3 3 3 3 3 3 3 4 3 3 4 5 8 11 13 13 12 11 12 12 13 10 7 6 6 7 8 8 9 9 10 10 9 8 7 9 11 10 8 7
8 9 -1 5 9 3 5 1 -2 8 10 11 15 15 11 1 1 10 11 7 3 3 5 4 3 5 6 5 4 4 3 4 5 3 3 4 5 6 5 5 5 6 8 7 6 6 7 7 8 8 7 6 6 4 4 4 4 4 3 3 3 3 4 4 3 3 4 5 6 10 13 12 10 9 10 12 12 10 6 4 3 4 7 8 8 9 11 12 11 9 7 6 9 12 11 8 7
6 9 -2 -2 6 10 9 -3 -3 8 8 11 13 11 13 12 4 2 6 8 6 7 7 4 5 4 4 7 6 6 6 6 6 5 4 3 4 5 4 5 5 5 6 6 5 6 8 6 5 7 6 5 6 6 5 6 5 5 3 3 4 3 4 4 4 6 6 5 7 11 12 9 8 8 9 10 9 7 4 2 2 4 5 6 7 8 10 11 11 9 7 6 8 10 10 9 7
5 7 -5 -7 4 13 15 8 4 2 -2 6 9 4 8 12 7 1 1 5 10 12 7 7 10 5 7 13 9 6 7 8 7 5 5 4 5 6 6 6 5 4 4 3 5 6 6 6 5 5 6 7 8 8 7 6 5 6 5 4 5 5 6 6 7 9 8 5 9 12 10 9 8 8 8 8 7 6 5 4 5 6 5 5 5 6 7 10 10 9 7 6 7 9 10 8 6
7 9 -6 -9 2 5 11 17 11 4 2 6 8 7 7 8 6 2 -0 6 10 8 6 8 7 4 7 10 12 11 6 5 6 5 7 8 7 7 7 9 7 5 6 4 4 6 5 5 5 5 6 7 8 8 8 8 7 6 6 6 7 7 7 7 9 10 7 6 10 10 8 7 7 6 6 6 6 6 7 7 8 7 7 7 6 5 5 6 9 9 9 8 7 8 9 9 7
6 13 1 -6 1 -0 8 16 7 4 7 4 10 14 10 9 8 6 6 8 8 7 8 6 4 11 15 12 14 14 5 3 4 3 7 11 14 12 7 7 8 6 7 6 5 6 6 6 6 6 5 4 6 7 7 8 7 5 5 6 6 6 5 6 10 10 7 7 9 7 5 5 4 4 5 4 5 7 8 8 9 9 9 8 9 9 7 5 4 5 8 10 9 7 8 9 9
5 11 3 -7 -6 -4 8 15 3 4 7 3 10 12 9 16 16 15 13 3 6 19 16 6 3 8 16 19 13 -1 -6 1 3 3 9 13 18 20 13 7 8 8 9 8 8 9 9 9 7 6 5 6 7 8 8 7 4 2 3 5 5 5 5 7 9 7 6 7 6 4 4 4 4 4 5 5 5 5 6 6 6 7 8 9 9 8 9 9 7 5 5 7 9 8 8 8 9
6 11 8 -4 -8 -11 -2 10 5 1 -1 -0 11 8 -0 7 12 20 22 3 -3 9 12 12 7 -1 9 21 14 2 1 2 2 7 13 16 18 18 18 14 8 7 9 9 11 12 12 11 10 9 9 10 10 9 9 7 3 1 3 7 7 5 7 10 9 7 7 6 4 4 4 4 4 6 6 5 3 3 4 6 5 6 7 8 7 5 4 6 10 12 9 8 8 7 8 9 9
4 10 10 1 2 -5 -14 -1 10 9 1 -3 7 12 7 2 -4 6 22 16 -5 -12 1 12 6 5 20 25 14 7 6 1 5 14 13 15 20 16 16 19 14 9 9 11 12 13 13 12 11 12 12 12 11 9 9 7 4 4 6 8 7 6 8 9 8 8 7 5 4 5 5 3 4 6 5 3 1 3 6 8 6 5 4 5 7 5 3 2 5 8 10 14 14 8 6 8 7
8 15 10 1 8 4 -12 -8 5 8 10 8 3 5 18 22 2 -12 3 20 8 -3 5 4 -1 7 10 6 5 5 6 3 1 6 8 11 16 11 10 17 20 18 14 14 14 12 12 11 11 12 12 13 12 11 11 10 10 11 10 9 7 7 7 7 8 7 5 5 6 7 5 3 3 4 5 6 7 10 11 10 8 6 5 6 5 4 4 4 3 4 6 14 22 15 6 7 7
9 16 17 8 6 5 -4 -6 -2 -1 1 7 10 6 8 17 17 6 1 8 9 8 10 3 8 9 -15 -16 5 5 5 8 -3 -3 7 10 8 4 6 12 16 18 15 11 11 9 9 10 11 12 11 11 10 9 11 12 13 14 13 12 9 7 7 7 7 5 5 7 7 6 5 4 4 7 11 11 11 11 8 7 7 7 8 6 5 10 13 4 -2 3 4 4 15 17 10 10 9
1 4 19 23 11 -2 -4 -5 -4 5 5 -0 8 16 8 2 10 17 15 15 12 11 13 8 5 -2 -16 -0 17 7 6 7 -5 -4 5 9 12 6 2 5 7 9 10 8 6 6 9 11 11 12 11 9 8 9 11 11 12 13 13 12 10 8 8 7 6 6 8 8 7 6 6 5 7 9 8 5 3 4 5 6 6 6 7 6 6 14 21 13 2 4 8 5 11 15 10 12 13
9 -3 3 25 32 14 4 3 -9 -11 3 6 2 6 11 11 8 6 17 32 22 6 3 -2 -5 -3 4 22 23 10 12 8 -4 -3 -3 0 11 11 5 2 1 3 6 7 6 5 8 10 11 12 11 9 8 10 11 10 10 10 10 11 9 8 8 7 9 10 8 7 6 5 4 4 5 6 6 4 3 5 7 9 8 8 11 11 9 9 15 19 12 7 13 16 18 21 14 11 14
23 6 -19 -5 31 32 12 10 7 -7 -9 3 8 5 5 11 13 8 16 29 22 13 9 -0 9 18 6 10 26 20 11 7 3 1 -2 -3 2 8 10 4 -0 1 3 5 7 6 8 10 10 11 11 10 10 10 9 8 8 8 10 10 8 9 10 11 10 7 4 4 2 3 5 5 5 7 10 9 6 6 7 8 8 7 8 8 9 10 12 19 15 6 11 14 16 26 22 9 9
26 28 2 -22 -3 29 27 12 14 15 -0 -12 -3 12 16 12 12 7 3 6 3 11 22 15 23 33 8 -3 21 25 11 7 7 5 3 2 -1 0 4 3 2 2 1 4 5 4 8 10 10 10 10 11 11 10 8 6 5 8 10 10 9 11 11 9 6 4 2 2 3 8 13 11 8 9 10 8 7 9 12 15 16 15 14 8 5 6 12 26 28 16 16 14 10 22 22 8 8
Height
5901 5901 5901 5901 5901 5902 5901 5900 5899 5899 5900 5900 5901 5901 5901 5900 5900 5900 5901 5901 5901 5901 5902 5902 5902 5902 5902 5902 5901 5901 5901 5901 5901 5902 5902 5902 5902 5903 5903 5903 5904 5904 5904 5904 5904 5903 5903 5903 5903 5904 5904 5904 5904 5904 5905 5906 5906 5906 5907 5907 5907 5908 5908 5909 5909 5909 5908 5908 5908 5909 5909 5909 5908 5907 5907 5907 5907 5908 5908 5908 5908 5908 5908 5909 5909 5909 5909 5909 5908 5908 5908 5908 5907 5907 5907 5907 5907
5901 5902 5902 5902 5902 5903 5902 5901 5901 5900 5901 5902 5902 5903 5902 5901 5902 5902 5902 5902 5902 5902 5903 5903 5903 5903 5903 5903 5903 5903 5903 5902 5902 5903 5904 5904 5904 5904 5904 5904 5905 5905 5906 5905 5905 5905 5905 5905 5906 5906 5906 5906 5906 5907 5908 5910 5909 5908 5909 5909 5909 5909 5909 5909 5909 5909 5909 5909 5910 5910 5910 5909 5909 5909 5908 5909 5909 5909 5909 5909 5909 5909 5910 5910 5910 5910 5909 5909 5909 5909 5908 5908 5908 5908 5908 5908 5907
5902 5902 5902 5903 5903 5904 5902 5901 5902 5902 5903 5903 5903 5903 5902 5902 5903 5903 5903 5904 5903 5903 5904 5904 5904 5904 5904 5904 5904 5904 5904 5904 5903 5904 5905 5905 5905 5906 5906 5906 5907 5907 5907 5907 5906 5906 5906 5907 5908 5908 5908 5908 5908 5909 5910 5911 5910 5910 5910 5910 5910 5910 5910 5910 5909 5910 5910 5910 5911 5911 5911 5910 5910 5910 5910 5910 5910 5910 5910 5910 5910 5911 5911 5911 5911 5911 5910 5910 5909 5909 5909 5909 5909 5909 5908 5908 5908
5903 5903 5903 5903 5905 5905 5903 5902 5904 5905 5905 5904 5904 5904 5903 5903 5904 5904 5905 5905 5905 5905 5905 5905 5905 5905 5905 5905 5905 5905 5905 5905 5904 5905 5906 5906 5906 5907 5908 5908 5908 5908 5909 5908 5908 5908 5908 5909 5909 5909 5909 5910 5911 5911 5911 5912 5911 5911 5911 5911 5911 5911 5911 5910 5910 5910 5911 5911 5912 5912 5912 5912 5911 5912 5912 5912 5911 5911 5911 5911 5911 5912 5912 5912 5912 5912 5911 5910 5910 5909 5909 5909 5909 5909 5909 5909 5909
5903 5904 5904 5904 5905 5904 5904 5905 5907 5908 5907 5905 5905 5905 5905 5905 5905 5905 5905 5906 5906 5906 5906 5906 5906 5905 5906 5906 5906 5906 5906 5906 5906 5906 5906 5907 5907 5907 5908 5909 5909 5909 5910 5910 5909 5909 5909 5910 5910 5910 5911 5911 5911 5912 5912 5912 5912 5911 5911 5911 5912 5912 5911 5911 5911 5911 5912 5912 5913 5913 5913 5913 5913 5913 5913 5913 5912 5912 5912 5912 5912 5913 5913 5913 5913 5912 5912 5911 5910 5910 5910 5910 5910 5910 5910 5909 5909
5904 5904 5905 5905 5905 5904 5906 5909 5910 5909 5908 5907 5906 5906 5906 5906 5906 5906 5907 5907 5907 5907 5907 5907 5907 5906 5906 5906 5907 5907 5907 5908 5908 5908 5908 5908 5908 5909 5909 5909 5909 5909 5910 5910 5911 5911 5911 5911 5911 5911 5911 5911 5912 5912 5912 5912 5911 5911 5911 5912 5912 5912 5912 5912 5912 5912 5913 5913 5914 5914 5914 5914 5914 5914 5914 5913 5913 5913 5913 5913 5913 5913 5914 5913 5913 5913 5912 5911 5911 5911 5911 5910 5910 5910 5910 5910 5910
5905 5905 5905 5906 5906 5906 5907 5910 5910 5909 5909 5908 5908 5907 5907 5907 5907 5907 5908 5908 5908 5908 5908 5908 5908 5907 5907 5907 5908 5908 5908 5909 5909 5909 5909 5909 5910 5910 5910 5910 5910 5910 5910 5911 5911 5911 5912 5912 5911 5911 5911 5911 5912 5912 5912 5912 5912 5912 5912 5912 5913 5913 5912 5912 5912 5913 5914 5914 5914 5914 5915 5915 5915 5915 5914 5914 5914 5913 5913 5913 5913 5914 5914 5914 5913 5913 5913 5912 5912 5912 5911 5911 5911 5911 5911 5910 5910
5905 5905 5906 5907 5907 5908 5910 5911 5911 5910 5910 5909 5909 5908 5908 5908 5908 5908 5908 5909 5908 5908 5908 5909 5908 5908 5908 5908 5908 5909 5909 5910 5910 5910 5910 5910 5910 5910 5911 5911 5911 5911 5911 5912 5912 5912 5912 5912 5912 5912 5912 5912 5912 5912 5913 5913 5912 5912 5912 5912 5913 5913 5913 5913 5914 5914 5915 5915 5915 5915 5915 5916 5916 5916 5915 5915 5914 5914 5914 5914 5914 5914 5914 5914 5914 5913 5913 5913 5912 5912 5912 5912 5911 5911 5911 5911 5910
5907 5906 5907 5907 5908 5911 5912 5912 5911 5911 5910 5910 5909 5909 5909 5909 5909 5909 5909 5909 5909 5909 5909 5909 5909 5909 5909 5909 5909 5909 5910 5910 5910 5911 5911 5911 5911 5911 5911 5912 5912 5912 5912 5913 5913 5913 5913 5913 5913 5913 5913 5913 5913 5913 5913 5913 5912 5912 5912 5913 5913 5914 5914 5915 5915 5915 5916 5916 5916 5916 5916 5917 5916 5916 5915 5915 5915 5914 5914 5914 5914 5914 5914 5914 5913 5913 5913 5913 5913 5913 5913 5912 5912 5912 5911 5911 5910
5908 5907 5907 5907 5909 5913 5913 5912 5912 5911 5911 5911 5910 5910 5910 5910 5910 5910 5910 5910 5910 5910 5910 5910 5910 5910 5909 5910 5910 5910 5910 5911 5911 5911 5912 5912 5912 5912 5912 5912 5912 5913 5913 5913 5913 5913 5913 5913 5913 5913 5914 5913 5913 5913 5913 5913 5913 5913 5914 5914 5915 5915 5916 5916 5916 5916 5916 5916 5917 5917 5917 5917 5917 5916 5916 5915 5915 5915 5915 5915 5915 5915 5914 5914 5914 5914 5914 5913 5913 5913 5913 5913 5912 5912 5912 5911 5911
5909 5909 5907 5909 5912 5914 5914 5912 5912 5911 5911 5911 5911 5910 5910 5910 5911 5910 5910 5910 5910 5910 5910 5911 5910 5910 5910 5910 5910 5910 5910 5911 5911 5912 5912 5912 5913 5913 5913 5912 5912 5913 5913 5913 5913 5913 5913 5914 5913 5914 5914 5914 5914 5914 5914 5914 5915 5915 5916 5916 5917 5917 5917 5917 5917 5917 5917 5917 5917 5918 5918 5918 5917 5917 5917 5916 5916 5916 5916 5916 5916 5915 5915 5914 5914 5914 5914 5914 5913 5913 5913 5913 5913 5912 5912 5911 5911
5910 5910 5908 5910 5914 5914 5914 5913 5912 5912 5911 5911 5911 5911 5910 5911 5911 5911 5911 5911 5911 5911 5911 5911 5911 5911 5911 5911 5911 5910 5910 5910 5911 5911 5912 5913 5913 5913 5913 5913 5913 5913 5913 5913 5913 5913 5913 5913 5914 5914 5914 5915 5915 5915 5915 5915 5916 5916 5917 5917 5917 5917 5917 5917 5917 5917 5917 5918 5918 5919 5919 5918 5918 5918 5917 5917 5916 5916 5916 5916 5916 5916 5915 5915 5914 5914 5914 5914 5913 5913 5913 5913 5913 5912 5912 5911 5911
5909 5910 5910 5912 5914 5914 5914 5914 5913 5913 5912 5911 5911 5911 5910 5911 5911 5911 5911 5911 5911 5911 5911 5911 5911 5911 5911 5911 5911 5910 5910 5910 5911 5911 5912 5912 5913 5913 5913 5913 5913 5913 5914 5914 5914 5914 5914 5914 5915 5915 5915 5916 5916 5916 5916 5916 5916 5917 5917 5918 5918 5918 5918 5918 5918 5918 5918 5919 5919 5920 5919 5919 5918 5918 5918 5917 5917 5917 5917 5917 5917 5916 5916 5915 5914 5914 5914 5913 5913 5913 5913 5912 5912 5912 5912 5911 5911
5910 5909 5910 5913 5914 5914 5914 5914 5914 5913 5912 5912 5911 5911 5910 5910 5911 5911 5911 5911 5911 5911 5911 5911 5911 5911 5911 5911 5911 5911 5910 5910 5911 5911 5911 5912 5913 5913 5913 5914 5913 5913 5914 5914 5915 5915 5915 5916 5916 5916 5916 5916 5916 5916 5917 5917 5917 5918 5918 5918 5918 5918 5918 5918 5918 5919 5919 5920 5921 5920 5920 5919 5919 5919 5918 5918 5918 5918 5918 5918 5917 5917 5916 5915 5915 5914 5914 5913 5913 5913 5912 5912 5912 5912 5912 5912 5911
5910 5909 5910 5913 5914 5914 5914 5914 5914 5913 5913 5912 5912 5911 5911 5911 5911 5911 5911 5911 5911 5911 5911 5911 5911 5911 5911 5911 5911 5911 5911 5911 5911 5911 5911 5912 5912 5913 5913 5914 5914 5914 5914 5915 5915 5916 5916 5916 5917 5917 5917 5917 5917 5917 5918 5918 5918 5918 5919 5919 5919 5919 5919 5919 5920 5920 5921 5921 5921 5921 5920 5920 5919 5919 5919 5919 5919 5919 5919 5918 5918 5917 5917 5916 5915 5914 5914 5914 5913 5913 5913 5912 5912 5912 5912 5912 5911
5911 5910 5912 5913 5914 5916 5915 5915 5915 5914 5913 5913 5913 5912 5911 5911 5911 5911 5911 5911 5911 5911 5911 5911 5911 5911 5912 5911 5912 5912 5911 5911 5911 5911 5911 5912 5912 5913 5913 5914 5914 5914 5915 5915 5916 5916 5917 5917 5917 5917 5918 5918 5918 5919 5919 5919 5919 5919 5919 5919 5920 5920 5920 5921 5921 5921 5922 5922 5922 5922 5921 5920 5920 5920 5920 5920 5920 5920 5919 5919 5918 5918 5917 5917 5916 5915 5914 5914 5913 5913 5913 5912 5912 5912 5912 5912 5911
5913 5913 5914 5913 5914 5917 5916 5916 5915 5914 5914 5913 5913 5913 5912 5912 5912 5912 5911 5911 5911 5912 5912 5911 5911 5911 5911 5911 5912 5912 5912 5911 5911 5911 5911 5912 5912 5913 5913 5914 5914 5914 5915 5915 5916 5917 5917 5918 5918 5918 5919 5919 5919 5919 5919 5919 5920 5920 5920 5920 5921 5921 5922 5922 5922 5923 5923 5923 5923 5922 5922 5921 5921 5921 5921 5921 5921 5920 5920 5920 5919 5919 5918 5917 5917 5916 5915 5915 5914 5914 5913 5913 5912 5912 5912 5912 5912
5914 5914 5914 5912 5914 5917 5917 5916 5915 5914 5914 5914 5914 5913 5913 5912 5912 5912 5912 5912 5911 5912 5912 5911 5911 5911 5911 5911 5911 5912 5912 5911 5911 5911 5911 5912 5912 5913 5913 5914 5914 5915 5915 5916 5916 5917 5918 5918 5919 5919 5919 5920 5920 5920 5920 5920 5920 5921 5921 5921 5922 5923 5923 5924 5924 5924 5924 5924 5924 5923 5923 5922 5922 5922 5922 5922 5921 5921 5921 5921 5920 5920 5919 5919 5918 5917 5916 5916 5915 5915 5914 5914 5913 5913 5913 5913 5912
5915 5915 5914 5912 5915 5917 5916 5916 5915 5914 5914 5914 5914 5914 5914 5913 5912 5912 5912 5912 5912 5912 5912 5912 5911 5911 5911 5911 5911 5912 5912 5912 5911 5911 5912 5912 5913 5913 5914 5914 5914 5915 5916 5916 5917 5918 5918 5919 5920 5920 5920 5920 5920 5921 5921 5921 5921 5922 5922 5923 5923 5924 5924 5925 5925 5924 5924 5924 5924 5924 5924 5923 5923 5923 5923 5923 5922 5922 5922 5922 5921 5921 5920 5919 5919 5918 5918 5917 5916 5916 5915 5914 5914 5914 5914 5914 5914
5915 5916 5915 5914 5916 5917 5915 5915 5915 5914 5914 5914 5914 5914 5914 5913 5912 5912 5912 5912 5912 5912 5912 5912 5912 5911 5911 5910 5910 5911 5912 5912 5912 5912 5912 5912 5913 5913 5914 5914 5915 5915 5916 5917 5917 5918 5918 5919 5920 5920 5920 5921 5921 5922 5922 5922 5923 5923 5924 5924 5925 5925 5925 5925 5925 5925 5925 5925 5925 5925 5925 5924 5924 5924 5924 5924 5923 5923 5922 5922 5922 5922 5921 5920 5920 5920 5919 5918 5917 5917 5916 5915 5915 5914 5914 5915 5914
5915 5916 5915 5914 5916 5917 5916 5915 5915 5915 5915 5914 5914 5914 5914 5914 5913 5912 5912 5913 5912 5912 5912 5912 5912 5911 5911 5910 5910 5911 5912 5912 5912 5912 5912 5912 5913 5914 5914 5915 5915 5916 5916 5917 5918 5918 5919 5919 5920 5920 5921 5922 5922 5923 5923 5923 5924 5924 5925 5925 5926 5926 5926 5926 5926 5926 5926 5925 5925 5926 5926 5926 5926 5925 5925 5924 5924 5924 5923 5923 5922 5922 5921 5920 5920 5921 5920 5919 5918 5918 5917 5917 5916 5915 5915 5915 5914
5915 5915 5915 5914 5916 5917 5916 5915 5915 5915 5915 5915 5914 5914 5914 5914 5913 5912 5912 5913 5912 5912 5912 5912 5912 5912 5911 5911 5911 5911 5912 5912 5912 5912 5912 5912 5913 5914 5914 5915 5916 5916 5917 5917 5918 5918 5919 5919 5920 5921 5922 5922 5923 5923 5924 5924 5925 5925 5926 5926 5926 5927 5927 5927 5927 5927 5926 5926 5926 5926 5927 5927 5927 5926 5926 5925 5925 5924 5924 5923 5922 5921 5920 5920 5919 5920 5920 5921 5920 5919 5918 5917 5917 5916 5915 5915 5915
5915 5915 5916 5915 5916 5916 5915 5915 5915 5915 5915 5915 5914 5914 5914 5914 5913 5913 5913 5913 5912 5912 5912 5911 5911 5912 5911 5911 5911 5911 5912 5912 5912 5912 5912 5912 5913 5914 5914 5915 5916 5917 5917 5918 5919 5919 5920 5920 5921 5922 5922 5923 5924 5924 5925 5925 5926 5926 5927 5927 5927 5927 5927 5927 5927 5927 5927 5927 5927 5927 5927 5928 5927 5927 5927 5926 5925 5924 5924 5923 5922 5921 5921 5921 5920 5920 5921 5920 5919 5919 5918 5918 5918 5917 5916 5916 5915
5915 5916 5916 5916 5915 5916 5915 5915 5915 5915 5915 5915 5914 5914 5914 5914 5913 5913 5913 5913 5912 5912 5912 5911 5911 5912 5911 5911 5911 5912 5912 5912 5912 5912 5912 5912 5913 5914 5915 5916 5916 5917 5918 5918 5919 5920 5920 5921 5922 5922 5923 5924 5924 5925 5926 5926 5927 5927 5927 5927 5927 5928 5928 5928 5928 5928 5928 5928 5928 5928 5928 5928 5928 5928 5927 5927 5926 5925 5924 5923 5923 5922 5922 5922 5921 5921 5922 5921 5920 5920 5920 5919 5919 5919 5918 5917 5916
5915 5915 5915 5915 5915 5915 5916 5915 5915 5915 5915 5915 5914 5914 5914 5914 5913 5913 5913 5913 5912 5912 5912 5911 5912 5912 5912 5912 5912 5912 5912 5912 5912 5912 5912 5913 5913 5914 5915 5916 5917 5917 5918 5919 5920 5920 5921 5922 5922 5923 5924 5924 5925 5926 5927 5927 5927 5928 5928 5928 5928 5928 5928 5928 5928 5929 5929 5929 5929 5929 5929 5929 5929 5928 5928 5927 5927 5926 5925 5925 5924 5923 5923 5923 5922 5922 5922 5922 5921 5921 5921 5920 5919 5920 5919 5918 5917
5917 5916 5915 5915 5915 5915 5916 5916 5915 5915 5915 5915 5914 5914 5914 5914 5914 5914 5913 5913 5913 5912 5912 5912 5912 5912 5912 5912 5912 5913 5912 5913 5913 5913 5913 5913 5913 5914 5915 5916 5917 5918 5919 5920 5921 5921 5922 5922 5923 5924 5924 5925 5926 5927 5927 5928 5928 5928 5928 5928 5928 5928 5929 5929 5929 5929 5929 5930 5930 5929 5929 5929 5929 5929 5928 5928 5928 5927 5927 5926 5926 5926 5925 5924 5923 5923 5922 5922 5922 5921 5922 5921 5920 5919 5919 5917 5916
5917 5915 5914 5915 5914 5915 5915 5916 5915 5915 5915 5914 5914 5914 5914 5914 5914 5914 5913 5913 5913 5912 5912 5912 5912 5912 5912 5912 5912 5913 5913 5913 5913 5913 5913 5913 5914 5914 5915 5916 5917 5918 5919 5920 5921 5922 5922 5923 5924 5924 5925 5926 5927 5927 5928 5928 5929 5929 5929 5929 5929 5929 5929 5929 5929 5930 5930 5930 5930 5930 5930 5930 5929 5929 5929 5928 5928 5928 5928 5927 5927 5927 5925 5925 5924 5922 5922 5923 5922 5921 5921 5921 5920 5919 5919 5917 5916
5913 5912 5913 5914 5914 5914 5915 5915 5915 5915 5914 5914 5914 5914 5914 5914 5914 5914 5914 5913 5913 5913 5912 5912 5911 5912 5912 5912 5912 5913 5913 5913 5914 5914 5914 5914 5914 5915 5916 5917 5918 5919 5920 5921 5922 5922 5923 5924 5924 5925 5925 5926 5927 5928 5928 5929 5929 5929 5929 5929 5929 5929 5929 5929 5929 5930 5930 5930 5930 5930 5930 5930 5930 5929 5929 5929 5928 5928 5928 5928 5927 5927 5926 5924 5924 5923 5923 5923 5923 5922 5920 5920 5920 5920 5919 5918 5917
5911 5912 5913 5913 5914 5914 5914 5915 5915 5914 5914 5914 5915 5914 5914 5914 5914 5914 5914 5913 5913 5913 5912 5912 5911 5911 5912 5912 5912 5913 5913 5913 5914 5914 5915 5915 5915 5916 5917 5917 5918 5919 5920 5921 5922 5923 5924 5924 5925 5925 5926 5927 5927 5928 5928 5929 5929 5930 5930 5930 5930 5930 5929 5929 5930 5930 5930 5930 5930 5930 5930 5930 5930 5930 5929 5929 5928 5928 5928 5928 5928 5927 5926 5924 5924 5924 5924 5923 5923 5923 5920 5920 5921 5920 5919 5918 5918
5910 5911 5912 5913 5914 5914 5914 5914 5914 5914 5914 5914 5914 5914 5914 5914 5914 5914 5914 5913 5913 5913 5912 5912 5911 5911 5912 5912 5912 5913 5913 5913 5913 5914 5914 5915 5916 5916 5917 5918 5919 5920 5921 5922 5922 5923 5924 5924 5925 5925 5926 5927 5927 5928 5929 5929 5930 5930 5930 5930 5930 5930 5930 5930 5930 5930 5930 5930 5930 5930 5930 5930 5930 5930 5930 5929 5929 5928 5928 5928 5928 5927 5926 5924 5924 5924 5925 5924 5924 5923 5921 5920 5921 5920 5920 5919 5918
5910 5910 5911 5912 5913 5913 5913 5913 5913 5913 5913 5914 5914 5913 5913 5914 5914 5914 5914 5913 5913 5913 5912 5912 5912 5911 5911 5912 5912 5912 5913 5913 5913 5914 5915 5915 5916 5917 5918 5918 5919 5920 5921 5922 5923 5923 5924 5925 5925 5926 5927 5927 5928 5928 5929 5929 5930 5930 5930 5930 5930 5930 5930 5930 5930 5930 5930 5930 5930 5930 5929 5930 5930 5930 5930 5930 5929 5929 5928 5928 5927 5927 5925 5924 5924 5924 5925 5925 5924 5923 5921 5921 5921 5920 5920 5919 5918
5908 5909 5910 5911 5912 5914 5913 5911 5912 5912 5913 5913 5913 5913 5914 5913 5913 5913 5913 5913 5913 5913 5912 5912 5912 5911 5911 5912 5912 5912 5913 5913 5914 5914 5915 5916 5917 5917 5918 5919 5919 5920 5921 5922 5923 5923 5924 5925 5925 5926 5927 5927 5928 5929 5929 5930 5930 5930 5930 5930 5930 5930 5930 5930 5930 5930 5930 5930 5930 5930 5929 5929 5929 5930 5930 5930 5930 5929 5929 5928 5927 5926 5924 5924 5925 5925 5925 5924 5923 5922 5921 5921 5920 5920 5919 5918 5918
5907 5908 5910 5911 5912 5914 5912 5910 5911 5911 5911 5912 5912 5913 5914 5913 5912 5912 5912 5913 5913 5913 5913 5913 5912 5912 5911 5912 5912 5912 5913 5913 5914 5915 5916 5916 5917 5918 5918 5919 5920 5920 5921 5922 5923 5923 5924 5925 5925 5926 5927 5928 5928 5929 5929 5930 5930 5930 5930 5931 5930 5930 5930 5930 5930 5930 5930 5930 5930 5930 5930 5930 5929 5930 5930 5930 5930 5929 5929 5928 5928 5927 5925 5925 5925 5925 5924 5923 5922 5921 5921 5920 5920 5919 5918 5918 5917
5906 5907 5909 5910 5911 5913 5911 5910 5910 5910 5910 5911 5911 5912 5913 5913 5912 5912 5912 5912 5913 5913 5913 5913 5913 5912 5912 5912 5912 5912 5913 5914 5914 5915 5916 5916 5917 5918 5918 5919 5920 5920 5921 5922 5922 5923 5924 5924 5925 5926 5927 5927 5928 5928 5929 5929 5930 5930 5930 5930 5930 5930 5930 5930 5930 5930 5930 5930 5930 5930 5930 5930 5929 5930 5930 5930 5929 5929 5929 5927 5927 5927 5926 5925 5926 5925 5924 5923 5922 5921 5920 5919 5919 5918 5917 5916 5915
5907 5908 5908 5909 5910 5911 5911 5909 5909 5909 5909 5910 5910 5911 5912 5912 5911 5911 5911 5912 5913 5913 5913 5913 5913 5912 5912 5912 5912 5913 5913 5914 5914 5915 5916 5916 5917 5918 5918 5919 5919 5920 5921 5922 5922 5923 5924 5924 5925 5926 5926 5927 5928 5928 5929 5929 5930 5930 5930 5930 5930 5930 5930 5930 5930 5931 5931 5931 5931 5931 5931 5930 5929 5930 5930 5929 5929 5928 5928 5927 5926 5926 5925 5925 5925 5924 5923 5922 5921 5920 5919 5918 5918 5917 5916 5915 5914
5907 5909 5908 5908 5909 5910 5910 5909 5907 5908 5908 5908 5909 5910 5911 5911 5910 5910 5911 5911 5912 5912 5913 5913 5913 5912 5912 5912 5912 5913 5913 5914 5914 5915 5915 5916 5917 5917 5918 5919 5919 5920 5921 5921 5922 5923 5923 5924 5925 5926 5926 5927 5927 5928 5928 5929 5929 5929 5930 5930 5930 5930 5930 5930 5930 5931 5931 5931 5931 5931 5931 5930 5929 5929 5929 5929 5929 5928 5927 5926 5926 5926 5925 5925 5924 5923 5922 5921 5920 5919 5918 5917 5916 5916 5915 5914 5913
5905 5908 5908 5906 5907 5908 5910 5909 5906 5906 5907 5908 5909 5909 5909 5910 5909 5910 5911 5911 5911 5912 5912 5912 5912 5912 5912 5912 5912 5913 5913 5914 5914 5915 5915 5916 5916 5917 5918 5918 5919 5920 5920 5921 5922 5922 5923 5924 5925 5925 5926 5926 5927 5927 5928 5928 5929 5929 5929 5930 5930 5930 5930 5930 5930 5931 5931 5931 5931 5931 5930 5929 5928 5929 5929 5928 5928 5927 5926 5926 5925 5925 5924 5924 5923 5922 5921 5920 5919 5918 5917 5916 5915 5914 5913 5913 5912
5902 5906 5908 5906 5906 5907 5909 5910 5907 5905 5907 5907 5907 5908 5908 5909 5909 5909 5910 5910 5911 5911 5912 5912 5912 5912 5912 5912 5912 5912 5913 5913 5914 5914 5915 5916 5916 5917 5917 5918 5918 5919 5920 5920 5921 5922 5923 5924 5924 5925 5925 5926 5926 5927 5927 5928 5928 5929 5929 5929 5930 5930 5930 5930 5930 5930 5931 5931 5930 5930 5930 5929 5928 5928 5928 5927 5927 5926 5925 5925 5924 5924 5923 5922 5921 5920 5919 5918 5917 5916 5915 5915 5914 5913 5912 5911 5910
5899 5903 5907 5907 5906 5906 5909 5912 5908 5903 5905 5906 5906 5906 5907 5907 5908 5908 5909 5909 5910 5911 5911 5911 5911 5912 5912 5912 5912 5912 5912 5913 5913 5914 5915 5915 5916 5916 5917 5917 5918 5918 5919 5920 5920 5921 5922 5923 5923 5924 5924 5925 5925 5926 5926 5927 5928 5928 5928 5929 5929 5929 5929 5929 5930 5930 5930 5930 5930 5929 5929 5928 5928 5927 5927 5926 5925 5925 5924 5923 5923 5922 5921 5921 5920 5919 5918 5917 5916 5915 5914 5913 5913 5912 5911 5910 5909
5896 5899 5904 5905 5905 5907 5909 5911 5907 5902 5903 5904 5904 5905 5905 5906 5906 5907 5907 5908 5909 5910 5910 5910 5910 5911 5911 5911 5911 5911 5911 5912 5912 5913 5914 5915 5915 5916 5917 5917 5917 5918 5919 5919 5920 5921 5921 5922 5922 5923 5923 5924 5924 5925 5925 5926 5927 5927 5928 5928 5928 5928 5929 5929 5929 5929 5929 5929 5928 5928 5927 5927 5927 5926 5925 5925 5924 5923 5922 5922 5921 5920 5919 5919 5918 5917 5916 5915 5915 5914 5913 5912 5911 5910 5909 5908 5908
5892 5896 5899 5902 5905 5907 5908 5907 5903 5901 5902 5902 5903 5903 5902 5904 5904 5905 5906 5907 5908 5909 5909 5909 5909 5910 5910 5910 5911 5911 5911 5911 5912 5912 5913 5914 5914 5915 5916 5917 5917 5918 5918 5919 5919 5920 5920 5921 5922 5922 5922 5923 5923 5924 5924 5925 5926 5927 5927 5927 5927 5928 5928 5928 5928 5928 5927 5927 5927 5926 5926 5925 5925 5924 5924 5923 5922 5921 5920 5920 5919 5918 5917 5917 5916 5915 5914 5913 5913 5912 5911 5910 5909 5909 5908 5907 5906
5890 5892 5895 5900 5905 5907 5908 5907 5902 5899 5899 5899 5900 5900 5900 5902 5902 5903 5905 5905 5906 5907 5907 5908 5908 5908 5909 5909 5910 5910 5910 5910 5911 5911 5912 5912 5913 5914 5915 5916 5916 5917 5917 5918 5918 5919 5920 5920 5921 5921 5921 5922 5922 5923 5923 5924 5925 5925 5926 5926 5926 5927 5927 5927 5926 5926 5926 5925 5925 5925 5924 5924 5923 5922 5922 5921 5920 5919 5919 5918 5917 5916 5915 5915 5914 5913 5912 5911 5911 5910 5909 5908 5908 5907 5906 5906 5905
5887 5890 5893 5896 5900 5903 5905 5906 5901 5897 5897 5898 5898 5897 5899 5900 5900 5901 5902 5902 5904 5904 5905 5906 5906 5906 5907 5907 5908 5909 5909 5909 5910 5910 5911 5911 5912 5913 5914 5914 5915 5916 5916 5917 5918 5918 5919 5920 5920 5920 5921 5921 5921 5922 5922 5923 5924 5924 5924 5925 5925 5925 5925 5925 5925 5925 5924 5924 5923 5923 5922 5922 5921 5920 5920 5919 5918 5917 5917 5916 5915 5915 5914 5913 5912 5911 5911 5910 5909 5909 5908 5907 5906 5905 5905 5904 5904
5884 5889 5892 5893 5894 5897 5900 5902 5900 5897 5896 5895 5894 5895 5897 5897 5897 5899 5900 5900 5901 5902 5902 5903 5904 5905 5905 5905 5905 5907 5908 5908 5909 5909 5910 5910 5911 5912 5912 5913 5914 5914 5915 5916 5917 5917 5918 5919 5919 5919 5920 5920 5920 5921 5921 5922 5922 5923 5923 5923 5924 5924 5924 5924 5923 5923 5923 5922 5922 5921 5920 5920 5919 5919 5918 5917 5916 5916 5915 5914 5914 5913 5912 5911 5911 5910 5910 5909 5908 5907 5906 5905 5905 5904 5903 5903 5902
5882 5887 5889 5890 5891 5892 5895 5898 5899 5897 5894 5892 5891 5893 5893 5893 5895 5897 5897 5897 5898 5899 5900 5901 5902 5903 5903 5903 5902 5903 5905 5907 5908 5908 5908 5909 5909 5910 5911 5911 5912 5912 5914 5915 5915 5916 5917 5917 5918 5918 5919 5919 5919 5920 5920 5921 5921 5921 5921 5922 5922 5922 5922 5922 5922 5922 5921 5921 5920 5919 5919 5918 5917 5917 5916 5915 5914 5914 5913 5913 5912 5911 5911 5910 5909 5909 5908 5907 5907 5906 5905 5904 5903 5902 5902 5901 5901
5881 5884 5885 5889 5891 5891 5891 5893 5896 5895 5890 5888 5889 5889 5888 5890 5893 5894 5893 5895 5896 5897 5898 5898 5899 5900 5901 5902 5900 5900 5902 5904 5905 5906 5906 5907 5908 5908 5909 5909 5910 5911 5912 5913 5913 5915 5915 5916 5917 5917 5917 5918 5918 5919 5919 5920 5920 5920 5920 5920 5920 5920 5920 5920 5920 5919 5919 5919 5918 5918 5917 5916 5916 5915 5914 5913 5912 5912 5911 5911 5910 5910 5909 5908 5908 5907 5906 5905 5904 5903 5903 5902 5901 5901 5900 5900 5899
5877 5879 5881 5886 5890 5890 5889 5888 5891 5891 5886 5884 5886 5887 5887 5887 5889 5891 5891 5893 5895 5895 5896 5896 5896 5898 5900 5900 5899 5899 5899 5900 5903 5904 5904 5905 5906 5906 5907 5908 5909 5909 5910 5911 5912 5913 5914 5914 5915 5915 5916 5916 5917 5917 5918 5918 5918 5918 5918 5918 5918 5918 5918 5918 5918 5917 5917 5917 5917 5916 5915 5915 5914 5913 5912 5911 5911 5910 5910 5909 5908 5908 5907 5906 5906 5905 5904 5903 5903 5902 5901 5900 5899 5899 5898 5897 5897
5871 5874 5878 5881 5883 5884 5884 5884 5885 5883 5882 5884 5886 5886 5885 5884 5886 5889 5890 5891 5892 5892 5893 5894 5894 5896 5898 5898 5899 5899 5898 5897 5899 5901 5903 5903 5904 5904 5905 5906 5907 5907 5908 5909 5910 5911 5911 5912 5913 5913 5914 5915 5915 5915 5916 5916 5916 5916 5916 5916 5917 5916 5916 5916 5915 5915 5915 5915 5915 5914 5913 5913 5912 5912 5911 5910 5909 5909 5908 5907 5907 5906 5905 5904 5903 5903 5902 5902 5901 5900 5899 5898 5897 5897 5896 5895 5894
5865 5869 5875 5876 5877 5879 5878 5878 5879 5878 5879 5884 5887 5886 5883 5881 5883 5887 5888 5888 5889 5890 5891 5893 5893 5894 5896 5897 5898 5897 5896 5895 5895 5897 5901 5902 5902 5903 5903 5904 5905 5905 5906 5907 5907 5908 5909 5910 5911 5912 5912 5913 5913 5913 5914 5914 5914 5914 5914 5914 5915 5914 5914 5914 5913 5913 5913 5913 5913 5912 5911 5911 5911 5910 5910 5909 5908 5907 5907 5906 5905 5905 5904 5903 5902 5901 5901 5900 5899 5898 5897 5896 5895 5894 5893 5892 5891
5859 5863 5868 5868 5870 5873 5873 5874 5877 5877 5879 5882 5883 5882 5879 5878 5880 5883 5885 5885 5887 5888 5888 5890 5892 5892 5892 5893 5894 5894 5895 5895 5893 5895 5899 5900 5901 5901 5902 5902 5903 5904 5904 5904 5905 5907 5908 5908 5909 5910 5910 5910 5911 5911 5911 5912 5912 5912 5912 5913 5913 5912 5912 5911 5911 5911 5911 5911 5911 5910 5909 5909 5909 5909 5909 5908 5907 5906 5906 5905 5904 5903 5903 5901 5901 5900 5899 5898 5897 5896 5895 5894 5893 5891 5890 5889 5889
5855 5860 5864 5863 5863 5868 5871 5873 5874 5875 5878 5880 5880 5876 5874 5877 5879 5881 5882 5883 5885 5885 5885 5887 5890 5891 5890 5890 5891 5892 5894 5895 5894 5895 5897 5899 5899 5900 5900 5901 5902 5902 5902 5903 5904 5905 5905 5906 5907 5907 5908 5908 5908 5909 5909 5910 5910 5910 5910 5911 5910 5910 5910 5909 5909 5909 5909 5909 5909 5908 5908 5908 5908 5908 5907 5907 5906 5905 5904 5904 5903 5902 5901 5900 5899 5898 5897 5896 5894 5893 5892 5891 5890 5889 5888 5887 5886
5851 5857 5859 5857 5859 5865 5870 5871 5872 5875 5877 5877 5876 5873 5872 5876 5878 5878 5878 5880 5881 5881 5882 5885 5887 5890 5890 5887 5888 5891 5892 5894 5894 5895 5896 5897 5898 5898 5899 5900 5901 5901 5901 5901 5902 5903 5903 5904 5904 5905 5905 5906 5906 5907 5907 5907 5907 5908 5908 5908 5908 5908 5908 5907 5907 5907 5907 5907 5907 5907 5907 5907 5906 5906 5906 5905 5904 5903 5903 5902 5901 5900 5899 5897 5896 5895 5894 5893 5891 5890 5889 5888 5887 5886 5884 5884 5883
5847 5850 5852 5854 5859 5863 5867 5868 5870 5873 5872 5871 5873 5873 5872 5874 5875 5874 5874 5875 5877 5878 5880 5883 5886 5890 5888 5883 5885 5888 5889 5891 5892 5893 5894 5895 5896 5897 5898 5899 5899 5899 5900 5900 5900 5901 5901 5901 5902 5902 5903 5904 5904 5904 5904 5905 5905 5905 5906 5906 5906 5906 5905 5905 5905 5905 5905 5906 5906 5905 5905 5905 5905 5905 5904 5903 5902 5902 5901 5899 5898 5897 5896 5894 5893 5892 5890 5889 5887 5886 5885 5884 5883 5882 5881 5880 5879
5844 5845 5849 5855 5857 5858 5861 5864 5866 5867 5866 5867 5870 5871 5872 5872 5870 5872 5872 5872 5875 5877 5878 5881 5885 5887 5884 5881 5883 5885 5886 5888 5890 5890 5892 5893 5894 5895 5896 5897 5897 5897 5898 5898 5899 5899 5899 5899 5899 5900 5900 5901 5901 5901 5902 5902 5902 5903 5903 5904 5904 5903 5903 5903 5903 5903 5904 5904 5904 5904 5904 5904 5903 5903 5902 5901 5900 5900 5898 5897 5896 5894 5893 5892 5890 5889 5887 5885 5883 5882 5881 5880 5879 5878 5877 5876 5875
5839 5843 5847 5850 5848 5849 5854 5856 5858 5860 5861 5863 5866 5867 5870 5869 5867 5869 5870 5870 5873 5875 5875 5877 5881 5883 5881 5880 5881 5882 5882 5883 5886 5888 5889 5891 5893 5893 5895 5895 5896 5896 5896 5897 5897 5897 5897 5897 5897 5898 5898 5898 5899 5899 5900 5900 5900 5900 5901 5901 5901 5901 5901 5901 5902 5902 5902 5902 5902 5902 5902 5902 5902 5901 5900 5899 5898 5897 5895 5894 5893 5892 5890 5889 5887 5885 5883 5881 5879 5878 5877 5876 5874 5873 5872 5872 5871
5834 5839 5841 5842 5842 5846 5849 5849 5850 5855 5858 5860 5863 5864 5865 5866 5867 5867 5867 5868 5870 5871 5873 5875 5877 5881 5883 5880 5878 5880 5882 5882 5884 5887 5887 5889 5890 5891 5893 5893 5894 5894 5894 5895 5895 5895 5896 5896 5896 5896 5896 5896 5897 5897 5897 5898 5898 5898 5899 5899 5899 5899 5899 5900 5900 5900 5901 5901 5901 5901 5900 5900 5900 5899 5898 5897 5895 5894 5892 5891 5889 5888 5887 5885 5883 5881 5879 5877 5875 5874 5872 5871 5870 5868 5868 5868 5867
5826 5830 5832 5836 5838 5842 5845 5845 5847 5851 5854 5856 5859 5859 5859 5863 5868 5868 5865 5866 5867 5868 5872 5873 5874 5880 5885 5882 5877 5877 5881 5882 5882 5885 5886 5886 5888 5889 5890 5891 5891 5892 5893 5893 5893 5894 5894 5894 5894 5894 5894 5895 5895 5895 5895 5896 5896 5897 5897 5897 5897 5897 5898 5898 5899 5899 5899 5899 5899 5899 5898 5898 5897 5897 5896 5894 5892 5890 5888 5887 5886 5884 5883 5881 5879 5877 5874 5872 5871 5869 5868 5867 5865 5864 5863 5864 5864
5820 5823 5826 5831 5835 5837 5839 5841 5844 5846 5846 5850 5855 5856 5857 5861 5866 5866 5863 5863 5865 5867 5870 5872 5873 5878 5882 5882 5879 5876 5878 5880 5880 5882 5884 5884 5885 5886 5887 5888 5889 5890 5891 5891 5891 5892 5892 5892 5892 5893 5893 5893 5893 5893 5894 5894 5894 5895 5895 5895 5895 5896 5896 5897 5897 5897 5897 5897 5897 5897 5896 5895 5895 5894 5893 5891 5889 5887 5885 5884 5882 5881 5879 5877 5875 5873 5870 5867 5865 5864 5864 5863 5861 5860 5860 5860 5860